TimeCST,TemperatureF,Dew PointF,Humidity,Sea Level PressureIn,VisibilityMPH,Wind Direction,Wind SpeedMPH,Gust SpeedMPH,PrecipitationIn,Events,Conditions,WindDirDegrees,DateUTC
12:53 AM,66.9,59.0,76,30.08,10.0,SSW,3.5,-,N/A,,Scattered Clouds,210,2012-11-04 05:53:00
1:53 AM,66.9,59.0,76,30.07,10.0,Calm,Calm,-,N/A,,Mostly Cloudy,0,2012-11-04 06:53:00
1:44 AM,66.2,59.0,78,30.07,10.0,WNW,3.5,-,N/A,Thunderstorm,Thunderstorm,290,2012-11-04 07:44:00
1:53 AM,66.0,59.0,78,30.09,10.0,NW,4.6,-,N/A,Thunderstorm,Thunderstorm,320,2012-11-04 07:53:00
2:12 AM,66.2,57.2,73,30.07,10.0,NE,10.4,-,N/A,,Overcast,40,2012-11-04 08:12:00
2:21 AM,66.2,59.0,78,30.08,10.0,NNE,6.9,-,N/A,Thunderstorm,Thunderstorm,20,2012-11-04 08:21:00
2:53 AM,63.0,59.0,87,30.12,4.0,NNE,5.8,-,0.07,Rain-Thunderstorm,Heavy Thunderstorms and Rain,20,2012-11-04 08:53:00
3:08 AM,62.6,60.8,94,30.09,2.0,ENE,11.5,-,0.14,Rain-Thunderstorm,Heavy Rain,60,2012-11-04 09:08:00
3:25 AM,62.6,60.8,94,30.08,4.0,North,4.6,-,0.24,Rain-Thunderstorm,Heavy Rain,10,2012-11-04 09:25:00
3:53 AM,62.1,60.1,93,30.11,8.0,ENE,6.9,-,0.34,Rain,Light Rain,70,2012-11-04 09:53:00
4:00 AM,62.6,60.8,94,30.09,10.0,East,6.9,-,0.00,Thunderstorm,Overcast,100,2012-11-04 10:00:00
4:15 AM,62.6,60.8,94,30.09,10.0,ESE,5.8,-,0.00,,Overcast,110,2012-11-04 10:15:00
4:53 AM,62.1,60.1,93,30.10,10.0,ESE,6.9,-,0.02,,Overcast,110,2012-11-04 10:53:00
5:30 AM,60.8,60.8,100,30.13,2.0,ENE,4.6,-,0.09,Rain,Heavy Rain,60,2012-11-04 11:30:00
5:38 AM,60.8,60.8,100,30.12,4.0,NE,4.6,-,0.11,Rain,Rain,50,2012-11-04 11:38:00
5:53 AM,61.0,60.1,97,30.12,6.0,East,4.6,-,0.12,Rain,Rain,80,2012-11-04 11:53:00
6:49 AM,60.8,60.8,100,30.12,9.0,North,3.5,-,0.01,,Overcast,10,2012-11-04 12:49:00
6:53 AM,61.0,60.1,97,30.14,8.0,Calm,Calm,-,0.01,,Overcast,0,2012-11-04 12:53:00
7:39 AM,60.8,60.8,100,30.15,6.0,Calm,Calm,-,0.01,Rain,Light Rain,0,2012-11-04 13:39:00
7:53 AM,62.1,61.0,96,30.17,8.0,Calm,Calm,-,0.01,,Overcast,0,2012-11-04 13:53:00
8:21 AM,62.6,60.8,94,30.13,10.0,ESE,5.8,-,N/A,,Scattered Clouds,110,2012-11-04 14:21:00
8:35 AM,62.6,60.8,94,30.12,10.0,ESE,5.8,-,N/A,,Mostly Cloudy,120,2012-11-04 14:35:00
8:53 AM,63.0,61.0,93,30.14,9.0,SE,8.1,-,N/A,,Overcast,130,2012-11-04 14:53:00
9:45 AM,64.4,60.8,88,30.15,10.0,NNW,4.6,-,N/A,,Mostly Cloudy,330,2012-11-04 15:45:00
9:53 AM,64.0,61.0,90,30.17,10.0,North,6.9,-,N/A,,Overcast,350,2012-11-04 15:53:00
10:15 AM,60.8,57.2,88,30.16,6.0,North,11.5,-,N/A,,Overcast,10,2012-11-04 16:15:00
10:53 AM,57.9,55.0,90,30.19,5.0,North,10.4,18.4,N/A,,Overcast,360,2012-11-04 16:53:00
11:29 AM,57.2,53.6,88,30.16,8.0,North,9.2,-,N/A,,Overcast,360,2012-11-04 17:29:00
11:53 AM,59.0,54.0,83,30.17,9.0,North,8.1,-,N/A,,Overcast,360,2012-11-04 17:53:00
12:53 PM,63.0,55.0,75,30.14,10.0,North,8.1,-,N/A,,Overcast,10,2012-11-04 18:53:00
1:53 PM,64.0,55.0,73,30.13,10.0,North,8.1,-,N/A,,Scattered Clouds,360,2012-11-04 19:53:00
2:53 PM,66.0,53.1,63,30.12,10.0,North,10.4,-,N/A,,Clear,10,2012-11-04 20:53:00
3:53 PM,64.0,52.0,65,30.12,10.0,North,6.9,-,N/A,,Clear,360,2012-11-04 21:53:00
4:53 PM,60.1,51.1,72,30.12,10.0,North,3.5,-,N/A,,Clear,350,2012-11-04 22:53:00
5:53 PM,55.9,50.0,80,30.14,10.0,North,4.6,-,N/A,,Clear,350,2012-11-04 23:53:00
6:53 PM,53.1,50.0,89,30.14,10.0,North,3.5,-,N/A,,Clear,10,2012-11-05 00:53:00
7:53 PM,53.1,50.0,89,30.15,10.0,North,5.8,-,N/A,,Overcast,10,2012-11-05 01:53:00
8:53 PM,51.1,48.0,89,30.16,10.0,ENE,3.5,-,N/A,,Scattered Clouds,60,2012-11-05 02:53:00
9:53 PM,53.1,48.0,83,30.15,10.0,NNE,4.6,-,N/A,,Mostly Cloudy,30,2012-11-05 03:53:00
10:53 PM,51.1,46.9,86,30.14,10.0,NNE,3.5,-,N/A,,Partly Cloudy,30,2012-11-05 04:53:00